This demonstration page uses our WeatherBlox Daily Observations layout. Learn more.

Left ArrowRight Arrow

Hourly Observations for April 22, 2022

Temp ( °F °C ) Dew Point ( °F °C ) Humidity (%) Winds ( mph kmh ) Pressure ( in mb ) Visibility ( mi km ) Precip ( " mm )
12:02 am 00:02 Cloudy with Nearby Thunderstorms 57 13.9 54 12.2 90 90 E 14 22 29.90 1013 10 16 0.00 0.00
12:12 am 00:12 Cloudy 57 14 54 12 88 88 E 12 19 29.90 1012 10 16 0.00 0.00
12:53 am 00:53 Cloudy 61 16.1 52 11.1 72 72 SE 15 24 29.87 1012 10 16 0.00 0.00
1:14 am 01:14 Cloudy 60 15.6 53 11.7 78 78 SE 10 17 29.88 1012 10 16 0.00 0.00
1:53 am 01:53 Cloudy 62 16.7 56 13.3 80 80 SSE 12 19 29.87 1011 10 16 0.00 0.00
2:53 am 02:53 Cloudy 65 18.3 60 15.6 84 84 SSE 8 13 29.84 1011 10 16 0.00 0.00
3:53 am 03:53 Cloudy 66 18.9 62 16.7 87 87 SSE 13 20 29.80 1009 8 13 0.00 0.00
4:53 am 04:53 Cloudy 67 19.4 62 16.7 84 84 SSE 16 26 29.78 1009 8 13 0.00 0.00
5:24 am 05:24 Mostly Cloudy 67 19.4 63 17.2 87 87 SSE 16 26 29.75 1007 8 13 0.00 0.00
5:53 am 05:53 Partly Cloudy 67 19.4 63 17.2 87 87 SSE 15 24 29.77 1008 7 11 0.00 0.00
6:12 am 06:12 Mostly Cloudy 66 19 63 17 88 88 SSE 17 28 29.74 1007 7 11 0.00 0.00
6:53 am 06:53 Mostly Cloudy with Mist and Fog 67 19.4 63 17.2 87 87 S 17 28 29.76 1008 6 10 0.00 0.00
7:02 am 07:02 Partly Cloudy with Mist and Fog 68 20 64 17.8 87 87 S 15 24 29.74 1007 6 10 0.00 0.00
7:53 am 07:53 Sunny with Mist and Fog 68 20 64 17.8 87 87 S 16 26 29.75 1008 6 10 0.00 0.00
8:45 am 08:45 Mostly Cloudy 71 21.7 65 18.3 81 81 S 15 24 29.71 1006 7 11 0.00 0.00
8:53 am 08:53 Cloudy 72 22.2 65 18.3 79 79 S 18 30 29.74 1007 7 11 0.00 0.00
9:53 am 09:53 Cloudy 74 23.3 65 18.3 74 74 S 17 28 29.72 1007 8 13 0.00 0.00
10:33 am 10:33 Partly Cloudy 77 25 65 18.3 66 66 S 21 33 29.64 1004 8 13 0.00 0.00
10:53 am 10:53 Mostly Sunny 78 25.6 64 17.8 62 62 SSW 22 35 29.70 1006 8 13 0.00 0.00
11:53 am 11:53 Mostly Sunny 83 28.3 62 16.7 49 49 S 23 37 29.68 1005 9 14 0.00 0.00
12:53 pm 12:53 Sunny 85 29.4 62 16.7 46 46 S 24 39 29.65 1004 10 16 0.00 0.00
1:53 pm 13:53 Sunny 86 30 61 16.1 43 43 S 24 39 29.61 1003 10 16 0.00 0.00
2:53 pm 14:53 Sunny 87 30.6 60 15.6 40 40 S 28 44 29.59 1002 9 14 0.00 0.00
3:53 pm 15:53 Sunny 86 30 60 15.6 42 42 S 21 33 29.56 1001 10 16 0.00 0.00
4:53 pm 16:53 Sunny 85 29.4 60 15.6 43 43 S 25 41 29.53 1000 10 16 0.00 0.00
5:53 pm 17:53 Sunny 84 28.9 60 15.6 44 44 S 31 50 29.51 999 7 11 0.00 0.00
6:53 pm 18:53 Sunny 81 27.2 60 15.6 49 49 S 30 48 29.51 999 8 13 0.00 0.00
7:53 pm 19:53 Mostly Sunny 78 25.6 60 15.6 54 54 S 29 46 29.49 999 7 11 0.00 0.00
8:53 pm 20:53 Mostly Clear 75 23.9 60 15.6 60 60 S 26 43 29.50 999 9 14 0.00 0.00
9:53 pm 21:53 Partly Cloudy 73 22.8 61 16.1 66 66 S 29 46 29.49 999 9 14 0.00 0.00
10:53 pm 22:53 Mostly Cloudy 72 22.2 61 16.1 68 68 S 25 41 29.47 998 9 14 0.00 0.00
11:44 pm 23:44 Mostly Cloudy with Haze 73 22.8 60 15.6 64 64 S 20 31 29.40 996 3 4 0.00 0.00
11:53 pm 23:53 Mostly Cloudy with Haze 73 22.8 60 15.6 64 64 S 32 52 29.42 996 2 2 0.00 0.00

Powered by AerisWeather